Weather History for KDFI - April, 2013

Change the Weather History Date:

Friday, April 19, 2013

  Actual Average Record
Temperature  
Mean Temperature 49 °F -  
Max Temperature 61 °F 61 °F 87 °F (1977)
Min Temperature 37 °F 38 °F 22 °F (1983)
Degree Days  
Heating Degree Days 16    
Moisture  
Dew Point 37 °F    
Average Humidity 77    
Maximum Humidity 94    
Minimum Humidity 60    
Precipitation  
Precipitation 0.29 in - - ()
Sea Level Pressure  
Sea Level Pressure 29.61 in    
Wind  
Wind Speed 11 mph (WSW)    
Max Wind Speed 22 mph    
Max Gust Speed 40 mph    
Visibility 9 miles    
Events Rain    
Averages and records for this station are not official NWS values.
T = Trace of Precipitation, MM = Missing Value Source: NWS Daily Summary

Daily Weather History Graph

Daily Weather History Graph

Search for Another Location

Airport or City:

Trip Planner

Search our weather history database for the weather conditions in past years. The results will help you decide how hot, cold, wet, or windy it might be!

Date:

Astronomy

Apr. 19, 2013 Rise Set
Actual Time 6:51 AM EDT 8:22 PM EDT
Civil Twilight 6:22 AM EDT 8:51 PM EDT
Nautical Twilight 5:47 AM EDT 9:26 PM EDT
Astronomical Twilight 5:10 AM EDT 10:03 PM EDT
Moon 2:02 PM EDT (4/19) 3:10 AM EDT (4/19)
Length of Visible Light 14h 28m
Length of Day
13h 30m
First Quarter, 61% of the Moon is Illuminated
Apr 19
First Quarter
Apr 25
Full
May 2
Last Quarter
May 9
New
May 18
First Quarter

Hourly Weather History & Observations

Time (EDT) Temp. Windchill Dew Point Humidity Pressure Visibility Wind Dir Wind Speed Gust Speed Precip Events Conditions
12:53 AM 59.0 °F - 57.0 °F 93% 29.55 in 10.0 mi SE 5.8 mph - N/A   Overcast
1:53 AM 59.0 °F - 57.0 °F 93% 29.49 in 8.0 mi ESE 5.8 mph - 0.01 in Rain Light Rain
2:53 AM 61.0 °F - 57.0 °F 87% 29.43 in 10.0 mi SSE 3.5 mph - 0.01 in Rain Light Rain
3:50 AM 57.2 °F - 55.4 °F 94% 29.43 in 4.0 mi WSW 9.2 mph - 0.07 in Rain Rain
3:53 AM 57.9 °F - 55.9 °F 93% 29.43 in 4.0 mi WSW 11.5 mph 18.4 mph 0.08 in Rain Rain
4:01 AM 57.2 °F - 53.6 °F 88% 29.43 in 4.0 mi WSW 8.1 mph 16.1 mph 0.02 in Rain Rain
4:10 AM 55.4 °F - 53.6 °F 94% 29.44 in 4.0 mi WSW 9.2 mph - 0.04 in Rain Rain
4:29 AM 53.6 °F - 51.8 °F 94% 29.43 in 10.0 mi West 13.8 mph 20.7 mph 0.06 in Rain Light Rain
4:53 AM 51.1 °F - 46.9 °F 86% 29.44 in 6.0 mi WSW 11.5 mph 20.7 mph 0.11 in Rain Rain
5:27 AM 48.2 °F - 44.6 °F 87% 29.47 in 8.0 mi WSW 8.1 mph 21.9 mph 0.06 in Rain Light Rain
5:53 AM 46.9 °F - 43.0 °F 86% 29.47 in 10.0 mi West 9.2 mph - 0.07 in   Overcast
6:24 AM 44.6 °F 39.7 °F 39.2 °F 81% 29.48 in 10.0 mi West 9.2 mph 23.0 mph N/A   Overcast
6:53 AM 43.0 °F 36.0 °F 39.0 °F 86% 29.50 in 5.0 mi WSW 13.8 mph 20.7 mph 0.01 in Rain Light Rain
7:06 AM 42.8 °F 37.5 °F 39.2 °F 87% 29.50 in 6.0 mi WSW 9.2 mph 23.0 mph 0.00 in Rain Light Rain
7:15 AM 42.8 °F 36.2 °F 39.2 °F 87% 29.51 in 8.0 mi WSW 12.7 mph 18.4 mph 0.00 in Rain Light Rain
7:50 AM 42.8 °F 37.0 °F 37.4 °F 81% 29.53 in 10.0 mi West 10.4 mph 25.3 mph 0.00 in   Overcast
7:53 AM 42.1 °F 34.5 °F 37.0 °F 82% 29.53 in 10.0 mi WSW 15.0 mph 27.6 mph 0.00 in   Overcast
8:53 AM 39.9 °F 31.8 °F 32.0 °F 73% 29.57 in 10.0 mi West 15.0 mph 25.3 mph 0.00 in   Overcast
9:53 AM 39.9 °F 32.1 °F 30.9 °F 70% 29.58 in 10.0 mi WSW 13.8 mph 25.3 mph N/A   Overcast
10:53 AM 39.9 °F 31.4 °F 30.0 °F 68% 29.61 in 10.0 mi WSW 16.1 mph 32.2 mph N/A   Overcast
11:49 AM 39.2 °F 29.6 °F 30.2 °F 70% 29.63 in 10.0 mi WSW 19.6 mph 40.3 mph N/A   Overcast
11:53 AM 39.9 °F 32.1 °F 30.0 °F 68% 29.63 in 10.0 mi WSW 13.8 mph 40.3 mph N/A   Overcast
12:28 PM 39.2 °F 30.5 °F 30.2 °F 70% 29.63 in 10.0 mi WSW 16.1 mph 33.4 mph N/A   Overcast
12:53 PM 41.0 °F 32.8 °F 30.9 °F 67% 29.64 in 10.0 mi WSW 16.1 mph 29.9 mph N/A   Overcast
1:04 PM 42.8 °F 34.8 °F 30.2 °F 61% 29.63 in 10.0 mi SW 17.3 mph 29.9 mph N/A   Overcast
1:53 PM 41.0 °F 33.1 °F 30.0 °F 65% 29.65 in 10.0 mi WSW 15.0 mph 29.9 mph N/A   Overcast
2:53 PM 42.1 °F 32.8 °F 28.9 °F 60% 29.68 in 10.0 mi WSW 21.9 mph 35.7 mph N/A   Overcast
3:53 PM 42.1 °F 34.5 °F 30.0 °F 62% 29.69 in 10.0 mi WSW 15.0 mph 32.2 mph N/A   Overcast
4:53 PM 41.0 °F 32.8 °F 30.9 °F 67% 29.72 in 10.0 mi SW 16.1 mph 26.5 mph N/A   Overcast
5:00 PM 39.2 °F 31.6 °F 30.2 °F 70% 29.71 in 10.0 mi SW 12.7 mph 26.5 mph N/A   Overcast
5:51 PM 41.0 °F 32.8 °F 30.2 °F 65% 29.74 in 10.0 mi SW 16.1 mph 27.6 mph 0.00 in   Overcast
5:53 PM 39.9 °F 30.8 °F 30.0 °F 68% 29.75 in 10.0 mi WSW 18.4 mph 28.8 mph 0.00 in   Overcast
6:53 PM 39.9 °F 32.1 °F 30.9 °F 70% 29.78 in 10.0 mi SW 13.8 mph 23.0 mph N/A   Overcast
7:53 PM 39.0 °F 31.0 °F 30.0 °F 70% 29.80 in 10.0 mi WSW 13.8 mph 28.8 mph 0.00 in   Overcast
8:53 PM 39.0 °F 31.8 °F 30.0 °F 70% 29.83 in 10.0 mi WSW 11.5 mph 25.3 mph N/A   Overcast
9:53 PM 37.9 °F 30.0 °F 30.0 °F 73% 29.85 in 10.0 mi WSW 12.7 mph 21.9 mph N/A   Overcast
10:28 PM 37.4 °F 30.3 °F 30.2 °F 75% 29.84 in 10.0 mi WSW 10.4 mph 21.9 mph N/A   Overcast
10:49 PM 37.4 °F 30.3 °F 28.4 °F 70% 29.84 in 10.0 mi WSW 10.4 mph 20.7 mph N/A   Overcast
10:53 PM 37.9 °F 31.5 °F 28.9 °F 70% 29.86 in 10.0 mi WSW 9.2 mph 18.4 mph N/A   Overcast
11:53 PM 37.9 °F 30.5 °F 30.0 °F 73% 29.86 in 10.0 mi WSW 11.5 mph 19.6 mph N/A   Overcast